THORAD AGENA D DEB

Satellite information

Favourite Embed

Satellite Type and Status

DEBRISIN ORBIT

Key statistics

Satellite THORAD AGENA D DEB at a glance.

Uptime

20340

Days in orbit

Revolutions

≈ 13.8

Per day

Orbit

SSO

Sun Synchronous Orbit

Inclination

99.5

Latest

Satellite identification and parameters

Extended collection of information and parameters for THORAD AGENA D DEB.

Object identification

Identified? True

Debris? True

Object name: THORAD AGENA D DEB

International designator: 1970-025PU

Object number (NORAD): 19250

Object ID (CCSDS): 19250

Country: UNITED STATES OF AMERICA (US)

Current information (Y/N): Y

RCS size: SMALL

Orbital parameters

Period: 104.363 minutes

Inclination: 99.4713 deg

SMA: 7342.722 km

Apoapsis: 1088.682 km

Periapsis: 840.492 km

RAAN: 91.5394 deg

Eccentricy: 0.01690043

Argument of periapsis: 242.7466 deg

Mean anomaly: 141.8417 deg

Mean motion: 13.79803129 rev/day

Mean motion (dot): 0.00004282 rev/day2

B* drag term: 0.0037553089 1/REarth

Two-line elements (TLE)

Creation date: Dec. 14, 2025, 6:24 p.m.

Reference frame: TEME

Reference center: EARTH

Epoch: Dec. 14, 2025, 6:36 a.m. UTC

TLE line 0: 0 THORAD AGENA D DEB

TLE line 1: 1 19250U 70025PU 25348.27543388 .00004282 00000-0 37553-2 0 9994

TLE line 2: 2 19250 99.4713 91.5394 0169004 242.7466 141.8417 13.79803129859814

Live tracking on map

Real-time ground track for satellite THORAD AGENA D DEB.

In-orbit conjunctions

A list of the most updated potential collisions computed for object THORAD AGENA D DEB.

Target Orbit TCA Probability of collision Miss distance Type
METEOR 2-20 DEB LEO 2025-05-23 16:40:29 0.0002115187 74.0 (m) DEBRIS
SCOUT A-1 DEB SSO 2024-11-15 07:46:27 0.0001338287 552.0 (m) DEBRIS
SL-14 DEB LEO 2024-11-12 21:57:20 0.0001259717 557.0 (m) DEBRIS

Associated space launch

Meteorological research and development satellite

THORAD AGENA D DEB was lifted into orbit during the mission ‘Thorad SLV-2G Agena D | Nimbus 4’, on board a Thorad SLV-2G Agena D space rocket.

The launch took place on April 8, 1970, 8:17 a.m. from Space Launch Complex 2E.

For more information about the launch, click the button.

Launch to space Thorad SLV-2G Agena D | Nimbus 4
Thorad SLV-2G Agena D | Nimbus 4

Agency: N/A

Status: Launch Successful

Launch date: April 8, 1970, 8:17 a.m. UTC

Rocket: Thorad SLV-2G Agena D

Launch pad: Space Launch Complex 2E

Location: Vandenberg SFB, CA, USA

...

Latest news about this satellite

There are no fresh news available about this satellite. Check back as we update our databases every day.


Newsletter sign-up

Weekly statistics, charts and insights to help you stay on top of the space industry.